This is the latest recevied weather packets stored in our database for station/object DB0LC-2. If no packets are shown the sender has not sent any weather packets the latest 10 day(s).
| Time | Temp. | Humidity | Pressure | Rain* | Wind** | Luminosity | Snow |
|---|---|---|---|---|---|---|---|
| 1777516436 | 18.89° C | 27% | 916.8 hPa | 0 mm | - | - | - |
| 1777515811 | 20° C | 27% | 916.7 hPa | 0 mm | - | - | - |
| 1777515212 | 20° C | 27% | 916.8 hPa | 0 mm | - | - | - |
| 1777514600 | 19.44° C | 27% | 916.8 hPa | 0 mm | - | - | - |
| 1777514599 | 19.44° C | 27% | 916.7 hPa | 0 mm | - | - | - |
| 1777513986 | 19.44° C | 27% | 916.8 hPa | 0 mm | - | - | - |
| 1777513363 | 19.44° C | 27% | 916.6 hPa | 0 mm | - | - | - |
| 1777512739 | 19.44° C | 27% | 916.6 hPa | 0 mm | - | - | - |
| 1777512738 | 19.44° C | 27% | 916.7 hPa | 0 mm | - | - | - |
| 1777512124 | 20° C | 27% | 916.7 hPa | 0 mm | - | - | - |
| 1777511488 | 20° C | 27% | 916.7 hPa | 0 mm | - | - | - |
| 1777510864 | 19.44° C | 27% | 916.7 hPa | 0 mm | - | - | - |
| 1777510863 | 19.44° C | 27% | 916.5 hPa | 0 mm | - | - | - |
| 1777510231 | 19.44° C | 27% | 916.5 hPa | 0 mm | - | - | - |
| 1777509620 | 18.89° C | 27% | 916.5 hPa | 0 mm | - | - | - |
| 1777509000 | 19.44° C | 26% | 916.4 hPa | 0 mm | - | - | - |
| 1777508998 | 19.44° C | 26% | 916.6 hPa | 0 mm | - | - | - |
| 1777508384 | 20° C | 27% | 916.6 hPa | 0 mm | - | - | - |
| 1777507783 | 19.44° C | 27% | 916.5 hPa | 0 mm | - | - | - |
| 1777507175 | 19.44° C | 27% | 916.6 hPa | 0 mm | - | - | - |
| 1777507173 | 19.44° C | 27% | 916.5 hPa | 0 mm | - | - | - |
| 1777506558 | 19.44° C | 27% | 916.6 hPa | 0 mm | - | - | - |
| 1777505947 | 18.89° C | 27% | 916.5 hPa | 0 mm | - | - | - |
| 1777505336 | 20° C | 27% | 916.5 hPa | 0 mm | - | - | - |
| 1777504735 | 20° C | 27% | 916.6 hPa | 0 mm | - | - | - |
* Rain latest hour (hover to see other rain measurements)
** Current wind speed in m/s (hover to see current wind gust speed)